• In Uzbekistan
  • List of Countries
  • For 7 days
  • Water Temperature
  • Satellite Maps
  • Weather Map
  • Weather Widgets
  • user-avatar
    Login

    Hourly Weather Ocotepec

    Today, 24 January, Thursday

    Time Temperature Precipitation Wind Pressure Humidity
    00:00 +14°C° 2.9 mm 2 mps 638 mmHg 98%
    01:00 +14°C° 2.1 mm 1 mps 638 mmHg 98%
    02:00 +14°C° 2.1 mm 1 mps 638 mmHg 98%
    03:00 +14°C° 2.1 mm 1 mps 637 mmHg 99%
    04:00 +14°C° 1 mm 1 mps 637 mmHg 99%
    05:00 +13°C° 1 mm 1 mps 637 mmHg 99%
    06:00 +13°C° 1 mm 1 mps 637 mmHg 99%
    07:00 +13°C° 0.8 mm 1 mps 637 mmHg 98%
    08:00 +13°C° 0.8 mm 1 mps 638 mmHg 98%
    09:00 +13°C° 0.8 mm 1 mps 638 mmHg 98%
    10:00 +13°C° 0.2 mm 1 mps 638 mmHg 97%
    11:00 +13°C° 0.2 mm 1 mps 638 mmHg 96%
    12:00 +13°C° 0.2 mm 2 mps 638 mmHg 95%
    13:00 +13°C° 0.1 mm 1 mps 638 mmHg 94%
    14:00 +13°C° 0.1 mm 1 mps 637 mmHg 94%
    15:00 +13°C° 0.1 mm 1 mps 636 mmHg 94%
    16:00 +13°C° 0.1 mm 1 mps 636 mmHg 95%
    17:00 +13°C° 0.1 mm 1 mps 636 mmHg 95%
    18:00 +13°C° 0.1 mm 1 mps 636 mmHg 96%
    19:00 +12°C° 0 mm 1 mps 637 mmHg 97%
    20:00 +12°C° 0 mm 1 mps 637 mmHg 97%
    21:00 +12°C° 0 mm 1 mps 637 mmHg 98%
    22:00 +12°C° 0 mm 1 mps 637 mmHg 98%
    23:00 +12°C° 0 mm 1 mps 637 mmHg 98%

    Tomorrow, 25 January, Friday

    Time Temperature Precipitation Wind Pressure Humidity
    00:00 +12°C° 0 mm 1 mps 637 mmHg 98%
    01:00 +12°C° 0.1 mm 1 mps 637 mmHg 98%
    02:00 +12°C° 0.1 mm 1 mps 637 mmHg 98%
    03:00 +12°C° 0.1 mm 1 mps 637 mmHg 98%
    04:00 +12°C° 0.1 mm 1 mps 637 mmHg 98%
    05:00 +12°C° 0.1 mm 1 mps 637 mmHg 98%
    06:00 +12°C° 0.1 mm 1 mps 637 mmHg 98%
    07:00 +13°C° 0.2 mm 1 mps 638 mmHg 97%
    08:00 +13°C° 0.2 mm 1 mps 638 mmHg 96%
    09:00 +13°C° 0.2 mm 1 mps 639 mmHg 95%
    10:00 +14°C° 0.2 mm 1 mps 639 mmHg 94%
    11:00 +14°C° 0.2 mm 1 mps 639 mmHg 94%
    12:00 +14°C° 0.2 mm 2 mps 639 mmHg 93%
    13:00 +14°C° 0.3 mm 2 mps 638 mmHg 94%
    14:00 +14°C° 0.3 mm 2 mps 638 mmHg 95%
    15:00 +14°C° 0.3 mm 2 mps 637 mmHg 96%
    16:00 +14°C° 0.2 mm 1 mps 637 mmHg 96%
    17:00 +13°C° 0.2 mm 1 mps 637 mmHg 97%
    18:00 +13°C° 0.2 mm 1 mps 637 mmHg 98%
    19:00 +13°C° 0.2 mm 1 mps 637 mmHg 98%
    20:00 +13°C° 0.2 mm 1 mps 638 mmHg 98%
    21:00 +13°C° 0.2 mm 1 mps 638 mmHg 98%
    22:00 +13°C° 0.1 mm 1 mps 638 mmHg 98%
    23:00 +13°C° 0.1 mm 1 mps 638 mmHg 98%

    Day after tomorrow, 26 January, Saturday

    Time Temperature Precipitation Wind Pressure Humidity
    00:00 +13°C° 0.1 mm 1 mps 638 mmHg 98%
    01:00 +13°C° 0.2 mm 1 mps 638 mmHg 98%
    02:00 +12°C° 0.2 mm 1 mps 637 mmHg 98%
    03:00 +12°C° 0.2 mm 1 mps 637 mmHg 98%
    04:00 +12°C° 0.1 mm 1 mps 637 mmHg 98%
    05:00 +12°C° 0.1 mm 1 mps 637 mmHg 98%
    06:00 +12°C° 0.1 mm 1 mps 637 mmHg 99%
    07:00 +13°C° 0.1 mm 1 mps 637 mmHg 97%
    08:00 +13°C° 0.1 mm 1 mps 638 mmHg 95%
    09:00 +12°C° 0.1 mm 0 mps 638 mmHg 94%
    10:00 +14°C° 0.1 mm 1 mps 638 mmHg 92%
    11:00 +15°C° 0.1 mm 1 mps 638 mmHg 90%
    12:00 +15°C° 0.1 mm 1 mps 638 mmHg 88%
    13:00 +16°C° 0.1 mm 1 mps 637 mmHg 86%
    14:00 +16°C° 0.1 mm 1 mps 636 mmHg 85%
    15:00 +18°C° 0.1 mm 1 mps 636 mmHg 84%
    16:00 +16°C° 0.1 mm 1 mps 635 mmHg 88%
    17:00 +15°C° 0.1 mm 1 mps 635 mmHg 92%
    18:00 +14°C° 0.1 mm 1 mps 635 mmHg 97%
    19:00 +14°C° 0 mm 1 mps 635 mmHg 97%
    20:00 +13°C° 0 mm 1 mps 635 mmHg 98%
    21:00 +13°C° 0 mm 1 mps 636 mmHg 98%
    22:00 +13°C° 0 mm 1 mps 635 mmHg 97%
    23:00 +12°C° 0 mm 1 mps 635 mmHg 96%

    27 January, Sunday

    Time Temperature Precipitation Wind Pressure Humidity
    00:00 +12°C° 0 mm 1 mps 635 mmHg 96%
    01:00 +12°C° 0 mm 1 mps 634 mmHg 95%
    02:00 +12°C° 0 mm 1 mps 634 mmHg 93%
    03:00 +11°C° 0 mm 1 mps 633 mmHg 92%
    04:00 +11°C° 0 mm 1 mps 633 mmHg 91%
    05:00 +11°C° 0 mm 1 mps 633 mmHg 89%
    06:00 +11°C° 0 mm 1 mps 633 mmHg 87%
    07:00 +13°C° 0 mm 1 mps 634 mmHg 80%
    08:00 +15°C° 0 mm 1 mps 635 mmHg 73%
    09:00 +18°C° 0 mm 1 mps 637 mmHg 65%
    10:00 +19°C° 0 mm 1 mps 637 mmHg 62%
    11:00 +21°C° 0 mm 1 mps 637 mmHg 58%
    12:00 +23°C° 0 mm 2 mps 638 mmHg 54%
    13:00 +21°C° 0.1 mm 2 mps 637 mmHg 61%
    14:00 +20°C° 0.1 mm 2 mps 636 mmHg 68%
    15:00 +19°C° 0.1 mm 2 mps 635 mmHg 75%
    16:00 +17°C° 0.5 mm 2 mps 635 mmHg 82%
    17:00 +16°C° 0.5 mm 2 mps 635 mmHg 89%
    18:00 +14°C° 0.5 mm 2 mps 635 mmHg 96%
    19:00 +14°C° 1 mm 2 mps 635 mmHg 96%
    20:00 +13°C° 1 mm 2 mps 636 mmHg 97%
    21:00 +13°C° 1 mm 2 mps 636 mmHg 97%
    22:00 +13°C° 1 mm 2 mps 636 mmHg 97%
    23:00 +13°C° 1 mm 2 mps 636 mmHg 97%

    28 January, Monday

    Time Temperature Precipitation Wind Pressure Humidity
    00:00 +12°C° 1 mm 2 mps 636 mmHg 97%
    01:00 +12°C° 0.5 mm 2 mps 636 mmHg 98%
    02:00 +12°C° 0.5 mm 2 mps 636 mmHg 98%
    03:00 +12°C° 0.5 mm 1 mps 635 mmHg 98%
    04:00 +12°C° 0.2 mm 1 mps 635 mmHg 98%
    05:00 +11°C° 0.2 mm 1 mps 635 mmHg 98%
    06:00 +11°C° 0.2 mm 1 mps 635 mmHg 98%
    07:00 +12°C° 0 mm 1 mps 636 mmHg 96%
    08:00 +12°C° 0 mm 1 mps 636 mmHg 93%
    09:00 +12°C° 0 mm 0 mps 637 mmHg 91%
    10:00 +14°C° 0 mm 1 mps 637 mmHg 85%
    11:00 +16°C° 0 mm 1 mps 637 mmHg 79%
    12:00 +18°C° 0 mm 1 mps 637 mmHg 73%
    13:00 +18°C° 0 mm 1 mps 636 mmHg 74%
    14:00 +18°C° 0 mm 1 mps 635 mmHg 74%
    15:00 +18°C° 0 mm 1 mps 635 mmHg 75%
    16:00 +16°C° 0 mm 1 mps 634 mmHg 81%
    17:00 +15°C° 0 mm 1 mps 634 mmHg 87%
    18:00 +14°C° 0 mm 1 mps 634 mmHg 93%
    19:00 +14°C° 0 mm 1 mps 634 mmHg 95%
    20:00 +13°C° 0 mm 1 mps 634 mmHg 96%
    21:00 +13°C° 0 mm 1 mps 634 mmHg 97%
    22:00 +12°C° 0 mm 1 mps 634 mmHg 96%
    23:00 +12°C° 0 mm 1 mps 634 mmHg 94%

    29 January, Tuesday

    Time Temperature Precipitation Wind Pressure Humidity
    00:00 +12°C° 0 mm 1 mps 633 mmHg 93%
    01:00 +11°C° 0 mm 1 mps 633 mmHg 90%
    02:00 +11°C° 0 mm 1 mps 633 mmHg 86%
    03:00 +11°C° 0 mm 1 mps 632 mmHg 83%
    04:00 +11°C° 0 mm 1 mps 632 mmHg 78%
    05:00 +11°C° 0 mm 1 mps 632 mmHg 74%
    06:00 +10°C° 0 mm 2 mps 632 mmHg 69%
    07:00 +13°C° 0 mm 1 mps 633 mmHg 64%
    08:00 +15°C° 0 mm 1 mps 634 mmHg 59%
    09:00 +18°C° 0 mm 1 mps 635 mmHg 53%
    10:00 +20°C° 0 mm 1 mps 636 mmHg 49%
    11:00 +22°C° 0 mm 1 mps 637 mmHg 45%
    12:00 +24°C° 0 mm 1 mps 637 mmHg 41%
    13:00 +24°C° 0 mm 1 mps 637 mmHg 42%
    14:00 +24°C° 0 mm 1 mps 636 mmHg 44%
    15:00 +24°C° 0 mm 1 mps 636 mmHg 46%
    16:00 +22°C° 0 mm 1 mps 635 mmHg 59%
    17:00 +20°C° 0 mm 1 mps 635 mmHg 71%
    18:00 +16°C° 0 mm 1 mps 635 mmHg 84%
    19:00 +15°C° 0 mm 1 mps 635 mmHg 88%
    20:00 +14°C° 0 mm 0 mps 636 mmHg 93%
    21:00 +13°C° 0 mm 0 mps 636 mmHg 97%
    22:00 +14°C° 0.3 mm 1 mps 636 mmHg 97%
    23:00 +14°C° 0.3 mm 1 mps 637 mmHg 97%
    Show more